Location: *
(50.8160°S, 176.0219°W)
Time: 02:18:51
(UTC+00:00)

Cosmos 962 Rocket - Pass Details

Date: 19 May 2026
Orbit: 950 x 998 km, 82.9° (Epoch: 8 June)

Event Time Altitude Azimuth Distance (km) Brightness Sun altitude
Exits shadow 16:03:56 88° 116° (ESE) 1,017 4.4 -30.4°
Drops below altitude 10° 16:10:22 10° 170° (S) 2,794 7.0 -29.4°
Sets 16:12:54 0° 169° (S) 3,744 7.7 -29.0°
